Location: Agadir Irigdalene
(31.2522°N, 8.7797°W)
Time: 15:39:33
(UTC+00:00)

Nadezhda 3 Rocket - Pass Details

Date: 01 December 2020
Orbit: 956 x 1000 km, 82.9° (Epoch: 25 January)

Event Time Altitude Azimuth Distance (km) Brightness Sun altitude
Rises 19:01:24 0° 190° (S) 3,697 7.4 -18.7°
Reaches altitude 10° 19:03:55 10° 192° (SSW) 2,755 6.7 -19.3°
Maximum altitude 19:10:14 71° 276° (W) 1,053 4.3 -20.6°
Drops below altitude 10° 19:16:36 10° 1° (N) 2,773 6.2 -21.9°
Sets 19:19:09 0° 3° (N) 3,724 6.9 -22.4°
